Total_Precipitation_Accumulation
1.77 2.23 2.78 3.62 4.70 5.63 5.90 5.40 4.93 4.61 4.22 3.86 3.31 3.00 3.09 3.03 2.76 2.48 2.16 2.07 2.01 2.10 2.30 2.10 2.30 2.13 2.22 2.34 2.42 2.55 2.58 2.49 2.56 2.72 2.65 2.26 1.95 1.85 1.76 1.83 2.05 1.96 1.96
1.95 2.68 3.69 4.27 4.55 4.68 4.42 4.08 3.83 3.63 3.19 2.92 2.81 2.63 2.69 2.44 2.29 2.21 2.24 1.89 1.79 1.88 1.87 2.11 2.15 2.15 2.32 2.36 2.35 2.46 2.42 2.23 2.31 2.58 2.79 2.45 2.22 1.79 1.34 1.45 1.47 1.57 1.88
2.14 2.96 3.54 3.66 3.42 3.09 2.96 2.90 2.97 2.73 2.62 2.68 2.63 2.58 2.65 2.39 2.18 2.10 2.16 1.84 1.61 1.62 1.72 1.83 1.97 2.18 2.10 2.22 2.26 2.18 2.25 2.29 2.29 2.30 2.63 2.59 2.39 2.02 1.47 1.27 1.34 1.51 1.73
1.71 2.14 2.41 2.28 2.37 2.50 2.50 2.61 2.70 2.45 2.44 2.41 2.16 2.11 2.09 2.00 1.94 1.95 2.04 2.10 1.74 1.57 1.55 1.65 1.80 1.96 1.90 2.11 1.89 2.01 2.23 2.31 2.19 2.14 2.05 2.10 2.19 2.30 1.96 1.53 1.31 1.43 1.53
1.14 1.28 1.40 1.52 1.71 1.82 2.00 2.26 2.51 2.45 2.28 2.11 2.08 2.17 2.04 2.03 2.03 2.07 2.14 2.20 2.00 1.75 1.58 1.65 1.78 1.85 1.79 1.83 1.82 2.16 2.17 2.09 2.04 2.05 2.07 2.06 2.03 1.95 2.00 1.82 1.56 1.42 1.21
1.01 1.06 1.10 1.22 1.37 1.51 1.74 1.99 2.32 2.37 2.25 2.10 2.03 2.10 2.17 2.16 2.10 2.11 2.09 1.91 1.86 1.86 1.71 1.70 1.79 1.72 1.67 1.69 1.75 2.00 2.03 2.08 2.17 2.17 2.04 2.09 1.99 1.89 2.04 1.81 1.56 1.40 1.01
0.98 1.06 1.00 0.97 1.02 1.18 1.33 1.43 1.66 1.93 2.03 1.99 1.96 2.00 2.16 2.10 1.94 1.85 1.79 1.75 1.59 1.54 1.58 1.65 1.79 1.63 1.57 1.65 1.87 1.98 1.98 2.06 2.10 2.03 1.93 1.88 1.69 1.77 1.85 1.75 1.47 1.38 1.08
0.84 0.90 0.90 0.86 0.83 0.93 1.11 1.25 1.48 1.66 1.86 1.89 1.87 1.92 2.01 1.94 1.80 1.82 1.64 1.61 1.55 1.47 1.56 1.61 1.60 1.57 1.56 1.58 1.92 1.86 1.89 1.96 1.89 1.76 2.01 1.90 1.58 1.74 1.80 1.86 2.00 1.79 1.53
0.66 0.80 0.87 0.94 0.94 0.92 1.03 1.18 1.44 1.70 1.90 2.00 2.04 1.99 2.01 2.02 1.97 1.90 1.68 1.49 1.61 1.53 1.63 1.68 1.63 1.64 1.77 1.92 2.08 1.94 1.95 2.01 1.82 1.84 2.07 1.92 1.74 1.75 1.75 1.93 2.19 2.30 1.96
0.69 0.91 1.06 1.03 0.90 0.78 0.85 1.04 1.30 1.67 1.88 2.02 2.01 1.91 2.08 2.01 1.97 1.91 1.75 1.58 1.58 1.57 1.69 1.81 1.79 1.84 1.88 2.01 2.10 1.93 2.00 1.99 1.87 1.92 2.10 2.08 1.91 1.92 1.86 1.90 2.06 2.29 2.24
0.77 0.94 1.14 1.11 0.88 0.77 0.76 0.90 1.23 1.52 1.68 1.80 1.88 1.80 1.77 1.71 1.72 1.78 1.77 1.74 1.72 1.66 1.68 1.77 1.81 1.79 1.83 1.91 2.01 1.86 1.91 1.89 1.90 1.89 1.95 2.00 2.16 2.15 2.07 2.18 2.22 2.29 2.42
0.83 0.80 0.94 1.10 1.01 0.89 0.83 0.99 1.27 1.45 1.54 1.60 1.62 1.62 1.66 1.64 1.58 1.56 1.65 1.71 1.62 1.53 1.59 1.64 1.61 1.54 1.64 1.80 1.84 1.77 1.85 1.89 1.85 1.94 2.09 2.02 2.13 2.20 2.24 2.41 2.30 2.37 2.65
0.62 0.65 0.81 0.95 1.07 1.04 1.01 1.15 1.29 1.38 1.44 1.37 1.38 1.40 1.42 1.41 1.41 1.43 1.50 1.58 1.60 1.59 1.57 1.54 1.46 1.44 1.52 1.60 1.63 1.76 1.89 1.91 1.94 2.05 2.15 2.18 2.38 2.28 2.34 2.40 2.34 2.39 2.64
0.66 0.64 0.74 0.96 1.06 1.11 1.11 1.10 1.18 1.35 1.37 1.30 1.34 1.45 1.50 1.54 1.56 1.53 1.58 1.68 1.76 1.69 1.70 1.67 1.67 1.68 1.65 1.67 1.75 1.85 1.93 1.95 1.99 2.14 2.18 2.21 2.30 2.38 2.55 2.54 2.60 2.78 2.97
0.73 0.71 0.79 0.98 1.13 1.28 1.30 1.25 1.24 1.31 1.45 1.57 1.62 1.78 1.93 1.96 1.85 1.81 1.89 1.95 1.99 1.92 2.05 2.04 2.02 2.09 2.03 1.82 1.97 2.05 2.01 2.11 2.02 2.10 2.14 2.13 2.27 2.38 2.55 2.44 2.61 2.96 3.15
0.73 0.70 0.81 1.02 1.06 1.08 1.16 1.17 1.21 1.27 1.34 1.42 1.58 1.78 1.98 2.08 2.05 2.09 2.24 2.26 2.21 2.31 2.43 2.36 2.31 2.26 1.97 2.08 2.17 2.17 2.26 2.28 2.21 2.22 2.25 2.22 2.23 2.18 2.23 2.29 2.39 2.62 2.81
0.72 0.75 0.77 0.87 1.05 0.99 0.98 1.10 1.18 1.30 1.44 1.68 1.87 1.96 2.11 2.24 2.26 2.23 2.27 2.31 2.36 2.37 2.42 2.40 2.40 2.25 2.18 2.22 2.04 2.04 2.06 2.19 2.25 2.29 2.31 2.11 1.97 2.04 1.93 2.09 2.17 2.13 2.18
0.95 1.02 1.09 1.08 1.13 1.09 1.08 1.17 1.25 1.40 1.48 1.58 1.75 1.89 2.08 2.23 2.34 2.45 2.47 2.56 2.66 2.68 2.66 2.56 2.50 2.43 2.28 2.19 2.02 2.08 1.96 2.01 2.07 2.10 2.13 2.11 2.00 1.98 2.07 2.07 1.95 1.75 1.71
1.03 1.16 1.21 1.22 1.18 1.26 1.36 1.50 1.52 1.65 1.78 1.84 2.01 2.13 2.23 2.39 2.48 2.54 2.68 2.79 2.89 2.87 2.86 2.79 2.73 2.68 2.65 2.60 2.30 2.20 2.02 2.06 2.04 2.06 2.07 2.05 1.90 2.04 1.99 1.91 1.88 1.75 1.63
1.11 1.23 1.21 1.18 1.34 1.42 1.49 1.61 1.80 1.92 2.06 2.18 2.34 2.47 2.60 2.67 2.65 2.67 2.76 2.80 2.84 2.84 2.83 2.73 2.76 2.71 2.68 2.78 2.52 2.30 2.05 2.06 2.08 2.15 2.15 2.16 2.00 2.07 2.01 1.93 1.94 1.80 1.70
1.30 1.27 1.25 1.31 1.38 1.42 1.52 1.68 1.89 2.07 2.18 2.29 2.39 2.54 2.66 2.87 3.02 3.06 2.88 2.71 2.70 2.76 2.86 2.83 2.87 2.86 2.81 2.78 2.41 2.25 2.13 2.15 2.18 2.14 2.08 2.10 2.13 1.91 1.77 1.70 1.70 1.76 1.83
1.41 1.41 1.39 1.38 1.42 1.52 1.61 1.76 1.94 2.06 2.19 2.26 2.41 2.52 2.60 2.62 2.68 2.92 2.97 2.91 2.82 2.74 2.76 2.83 2.77 2.68 2.62 2.48 2.19 1.95 1.91 1.96 1.96 1.96 1.93 1.93 1.92 1.71 1.55 1.39 1.35 1.46 1.48
1.34 1.36 1.39 1.43 1.50 1.57 1.69 1.84 1.94 2.05 2.11 2.23 2.38 2.55 2.62 2.68 2.66 2.68 2.76 2.75 2.70 2.56 2.41 2.46 2.50 2.51 2.49 2.34 2.05 1.75 1.65 1.67 1.59 1.66 1.86 1.85 1.72 1.58 1.49 1.44 1.37 1.29 1.22
1.38 1.42 1.42 1.44 1.58 1.71 1.85 1.90 1.91 2.02 2.22 2.30 2.35 2.41 2.45 2.48 2.55 2.68 2.63 2.57 2.57 2.51 2.35 2.35 2.38 2.39 2.35 2.17 1.90 1.72 1.61 1.56 1.50 1.55 1.73 1.81 1.78 1.67 1.57 1.47 1.31 1.15 1.15
1.36 1.43 1.52 1.55 1.63 1.69 1.82 1.95 2.00 2.03 2.13 2.14 2.09 2.15 2.26 2.32 2.33 2.48 2.55 2.41 2.32 2.37 2.28 2.33 2.50 2.43 2.22 2.04 1.87 1.64 1.57 1.56 1.63 1.66 1.73 1.86 1.90 1.88 1.76 1.60 1.45 1.32 1.25
1.35 1.47 1.54 1.63 1.66 1.68 1.76 1.80 1.86 1.97 2.08 2.15 2.13 2.13 2.18 2.25 2.29 2.26 2.32 2.34 2.10 2.04 1.93 1.97 2.05 2.10 1.99 1.88 1.78 1.65 1.58 1.52 1.54 1.54 1.66 1.92 1.99 1.99 1.96 1.85 1.66 1.50 1.40